DRAGON CRS-32

导读

DRAGON CRS-32是美国太空探索技术公司(SpaceX)为NASA执行的第32次国际空间站商业货运补给任务,于2025年4月21日从肯尼迪航天中心发射。飞船携带约3039千克物资,含多领域科研载荷与补给,对接空间站开展一月科学实验后,于同年5月完成返程溅落太平洋,顺利完成天地往返运输任务。

Basic Information
目录编号:
63628
目录名称:
DRAGON CRS-32
国际标识:
2025-080A
轨道中心:
EARTH
卫星名称:
DRAGON CRS-32
卫星全名:
DRAGON CRS-32
卫星状态:
已陨落 最后检测时间 2025-05-25
发射日期:
2025-04-21 UTC
国别 :
美国 (US)
星等 :
--
Orbit Information
数据来源 国际轨道数据
星历时间: 2025-05-24T07:22:15+0800
轨道信息已过期469天
半长轴: 6784.549km
偏心率: 0.0003298
轨道倾角: 51.638°
近地点辐角 91.994°
升交点赤经 67.035°
平近点角 7.718°
近地点: 404.176km
远地点: 408.652km
周期: 92.692分钟
每日圈数: 15.535359
Detailed Information
使用方式:
暂无